Погода в Красном Луче

Россия / Псковская область     57°04′01″N   30°05′03″E
темп.,
°C
ветер,
м/с
пор.,
м/с
влажн.,
%
обл.,
%
осадки,
мм/ч
давл.,
гПа
погр.,
м
18 апреля, вс
вс1800:00+8св3118260 0.0 1023323
03:00+6св31079100 0.0 1024238
06:00+5св31078100 0.0 1024300
09:00+9св59623 0.0 1024518
12:00+13всв58472 0.0 10231237
15:00+14св57405 0.0 10231807
18:00+13св46445 0.0 10231936
21:00+8св386695 0.0 1024161
19 апреля, пн
пн1900:00+7всв4116643 0.0 1025371
03:00+5всв387940 0.0 1026269
06:00+3св27915 0.0 1026184
09:00+8всв36715 0.0 1026511
12:00+12всв465544 0.0 10251548
15:00+11св4657100 0.1 10251038
18:00+10всв4761100 0.0 1024855
21:00+8в376996 0.0 1025515
20 апреля, вт
вт2000:00+7всв3871100 0.0 1024449
03:00+6всв3773100 0.0 1023357
06:00+3в3780100 0.0 1022304
09:00+6в466599 0.0 1021925
12:00+8в4653100 0.0 10201543
15:00+8в4556100 0.0 10181405
18:00+7в3568100 0.1 1017992
21:00+4в3686100 0.1 1017457
21 апреля, ср
ср2100:00+4всв3590100 0.1 1014587
03:00+4с3796100 0.1 1011484
06:00+4с4996100 0.8 1007804
09:00+4ссв4897100 4.2 1005807
12:00+3с3698100 2.8 1004401
15:00+3сз3699100 3.6 1004378
18:00+3зсз3798100 0.9 1005481
21:00+3зсз2798100 1.4 1006562
22 апреля, чт
чт2200:00+4з378997 0.0 1008400
03:00+2зюз229698 0.0 101020
06:00+1юз229311 0.0 101214
09:00+6зюз247690 0.0 1014285
12:00+12ююз126178 0.1 1015900
15:00+12ююз235872 0.8 10161241
18:00+13ююв02575 0.6 1017891
21:00+7ююв11805 0.6 101911